GW1859 Weather Reports


time (UTC)temp
C
wind
direction
speed
KPH
gust
KPH
rain 1hr
cm
rain 24hr
cm
rain mn
cm
humidity
%
barometer
mb
20260505224242 11 107 0.0 1.6 0.00 0.00 0.00 67 1013.1
20260505223739 12 90 1.6 3.2 0.00 0.00 0.00 66 1013.1
20260505223235 12 136 1.6 1.6 0.00 0.00 0.00 66 1013.4
20260505222731 12 107 0.0 0.0 0.00 0.00 0.00 67 1013.0
20260505222227 12 127 0.0 0.0 0.00 0.00 0.00 66 1013.1
20260505221725 12 161 0.0 1.6 0.00 0.00 0.00 66 1012.8
20260505221221 12 131 0.0 1.6 0.00 0.00 0.00 65 1013.0
20260505220718 12 122 0.0 1.6 0.00 0.00 0.00 65 1013.1
20260505220216 12 101 0.0 0.0 0.00 0.00 0.00 65 1013.0
20260505215714 12 119 0.0 1.6 0.00 0.00 0.00 64 1013.2
20260505215212 12 102 3.2 3.2 0.00 0.00 0.00 64 1013.6
20260505214709 12 123 0.0 0.0 0.00 0.00 0.00 65 1013.1
20260505214206 12 14 3.2 4.8 0.00 0.00 0.00 64 1013.2
20260505213704 12 120 0.0 0.0 0.00 0.00 0.00 66 1013.5
20260505213201 11 117 0.0 0.0 0.00 0.00 0.00 67 1013.5
20260505212656 12 110 1.6 1.6 0.00 0.00 0.00 66 1013.4
20260505212154 12 108 1.6 1.6 0.00 0.00 0.00 66 1013.5
20260505211651 12 112 1.6 1.6 0.00 0.00 0.00 66 1013.4
20260505211148 12 110 0.0 1.6 0.00 0.00 0.00 66 1013.8
20260505210644 12 144 0.0 1.6 0.00 0.00 0.00 66 1013.6
20260505210141 12 97 1.6 3.2 0.00 0.00 0.00 66 1013.6
20260505205639 12 113 0.0 0.0 0.00 0.00 0.00 66 1013.5
20260505205137 12 114 1.6 1.6 0.00 0.00 0.00 67 1013.7
20260505204633 12 112 1.6 1.6 0.00 0.00 0.00 67 1013.3
20260505204131 12 168 4.8 8.0 0.00 0.00 0.00 67 1013.5
20260505203628 12 130 0.0 0.0 0.00 0.00 0.00 69 1013.5
20260505203125 11 136 0.0 1.6 0.00 0.00 0.00 69 1013.5
20260505202620 12 151 1.6 3.2 0.00 0.00 0.00 70 1013.4
20260505202116 11 85 1.6 3.2 0.00 0.00 0.00 71 1013.7
20260505201613 12 93 3.2 4.8 0.00 0.00 0.00 70 1013.8
20260505201111 12 66 1.6 3.2 0.00 0.00 0.00 70 1013.9
20260505200609 11 113 0.0 1.6 0.00 0.00 0.00 70 1013.7
20260505200106 12 113 0.0 1.6 0.00 0.00 0.00 69 1013.8
20260505195602 12 322 3.2 8.0 0.00 0.00 0.00 69 1013.6
20260505195059 12 128 1.6 1.6 0.00 0.00 0.00 68 1013.5
20260505194556 12 97 1.6 1.6 0.00 0.00 0.00 69 1013.5
20260505194052 12 129 0.0 0.0 0.00 0.00 0.00 69 1013.2
20260505193549 12 125 3.2 3.2 0.00 0.00 0.00 69 1013.3
20260505193046 12 113 0.0 1.6 0.00 0.00 0.00 68 1013.5
20260505192545 12 126 0.0 0.0 0.00 0.00 0.00 68 1013.1
20260505192042 12 347 1.6 3.2 0.00 0.00 0.00 68 1013.5
20260505191540 12 105 0.0 1.6 0.00 0.00 0.00 68 1013.5
20260505191038 12 104 4.8 4.8 0.00 0.00 0.00 66 1013.5
20260505190532 12 108 1.6 3.2 0.00 0.00 0.00 67 1013.2
20260505190028 12 82 0.0 1.6 0.00 0.00 0.00 67 1013.2
20260505185525 11 110 1.6 1.6 0.00 0.00 0.00 67 1013.3
20260505185022 11 111 1.6 3.2 0.00 0.00 0.00 66 1013.2
20260505184519 12 111 1.6 3.2 0.00 0.00 0.00 66 1013.3
20260505184015 12 29 6.4 8.0 0.00 0.00 0.00 66 1013.3
20260505183512 12 358 1.6 3.2 0.00 0.00 0.00 66 1012.9
20260505183010 12 116 1.6 4.8 0.00 0.00 0.00 66 1012.9
20260505182506 12 76 1.6 3.2 0.00 0.00 0.00 64 1012.9
20260505182002 12 118 0.0 0.0 0.00 0.00 0.00 64 1013.1
20260505181459 12 111 1.6 3.2 0.00 0.00 0.00 63 1013.0
20260505180956 12 137 4.8 4.8 0.00 0.00 0.00 63 1012.8
20260505180452 12 114 3.2 3.2 0.00 0.00 0.00 64 1012.7
20260505175949 12 96 4.8 8.0 0.00 0.00 0.00 63 1012.9
20260505175445 12 106 1.6 3.2 0.00 0.00 0.00 66 1012.8
20260505174942 12 301 3.2 4.8 0.00 0.00 0.00 67 1013.2
20260505174434 12 111 1.6 1.6 0.00 0.00 0.00 66 1013.0
20260505173930 12 118 0.0 0.0 0.00 0.00 0.00 66 1013.0
20260505173426 11 100 1.6 3.2 0.00 0.00 0.00 67 1013.0
20260505172923 12 116 1.6 3.2 0.00 0.00 0.00 67 1012.9
20260505172422 12 87 6.4 12.9 0.00 0.00 0.00 64 1012.7
20260505171921 12 113 3.2 3.2 0.00 0.00 0.00 63 1012.9
20260505171418 12 97 8.0 12.9 0.00 0.00 0.00 65 1013.0
20260505170914 12 97 8.0 12.9 0.00 0.00 0.00 65 1013.0
20260505170411 12 97 8.0 12.9 0.00 0.00 0.00 65 1012.9
20260505165906 12 106 1.6 3.2 0.00 0.00 0.00 64 1012.8
20260505165356 12 8 9.7 17.7 0.00 0.00 0.00 63 1012.8
20260505164852 11 125 0.0 1.6 0.00 0.00 0.00 63 1012.8
20260505164349 11 120 1.6 1.6 0.00 0.00 0.00 64 1013.0
20260505163847 12 78 3.2 9.7 0.00 0.00 0.00 63 1012.7
20260505163346 12 106 3.2 8.0 0.00 0.00 0.00 61 1012.7
20260505162844 12 355 3.2 8.0 0.00 0.00 0.00 62 1012.6
20260505162340 12 112 1.6 1.6 0.00 0.00 0.00 61 1012.7
20260505161837 12 103 1.6 3.2 0.00 0.00 0.00 62 1012.6
20260505161334 12 86 1.6 3.2 0.00 0.00 0.00 61 1012.6
20260505160831 12 127 1.6 3.2 0.00 0.00 0.00 62 1012.6
20260505160329 11 48 4.8 4.8 0.00 0.00 0.00 62 1012.4
20260505153308 12 342 0.0 1.6 0.00 0.00 0.00 63 1011.7
20260505152805 12 168 3.2 4.8 0.00 0.00 0.00 62 1011.4
20260505152304 12 92 3.2 3.2 0.00 0.00 0.00 62 1011.3
20260505151756 12 2 3.2 4.8 0.00 0.00 0.00 63 1011.2
20260505151254 11 125 0.0 1.6 0.00 0.00 0.00 63 1011.4
20260505150750 11 115 1.6 1.6 0.00 0.00 0.00 63 1011.3
20260505150247 12 97 3.2 3.2 0.00 0.00 0.00 63 1011.5
20260505140217 12 107 1.6 1.6 0.00 0.00 0.00 63 1011.1
20260505130141 12 95 0.0 1.6 0.00 0.00 0.00 59 1010.3
20260505124631 12 292 6.4 11.3 0.00 0.00 0.00 60 1009.7
20260505124128 12 137 1.6 3.2 0.00 0.00 0.00 60 1009.5
20260505123623 12 101 1.6 1.6 0.00 0.00 0.00 59 1009.0
20260505123120 12 343 4.8 9.7 0.00 0.00 0.00 59 1009.1
20260505122617 12 108 0.0 0.0 0.00 0.00 0.00 61 1009.1
20260505122115 12 135 3.2 4.8 0.00 0.00 0.00 61 1009.1
20260505121611 12 181 3.2 4.8 0.00 0.00 0.00 61 1008.9
20260505121108 12 126 0.0 0.0 0.00 0.00 0.00 60 1008.8
20260505120604 12 125 1.6 3.2 0.00 0.00 0.00 59 1008.9
20260505120100 12 115 0.0 1.6 0.00 0.00 0.00 59 1008.6
20260505115554 12 95 3.2 3.2 0.00 0.00 0.00 58 1008.5
20260505115052 12 108 4.8 8.0 0.00 0.00 0.00 58 1008.6
20260505114549 12 122 0.0 1.6 0.00 0.00 0.00 58 1008.4
20260505114045 12 242 4.8 4.8 0.00 0.00 0.00 58 1008.5
20260505113541 12 107 0.0 1.6 0.00 0.00 0.00 57 1008.3
20260505113038 12 54 3.2 4.8 0.00 0.00 0.00 57 1008.3
20260505112534 12 88 3.2 3.2 0.00 0.00 0.00 57 1008.4
20260505112032 12 19 4.8 8.0 0.00 0.00 0.00 57 1008.2
20260505111526 12 93 1.6 3.2 0.00 0.00 0.00 57 1007.7
20260505111022 12 48 3.2 3.2 0.00 0.00 0.00 57 1008.2
20260505110514 12 115 0.0 1.6 0.00 0.00 0.00 57 1007.8
20260505101945 13 110 0.0 1.6 0.00 0.00 0.00 60 1007.0
20260505101438 13 105 1.6 1.6 0.00 0.00 0.00 61 1006.8
20260505100934 13 282 3.2 4.8 0.00 0.00 0.00 61 1007.0
20260505100432 13 93 3.2 3.2 0.00 0.00 0.00 62 1006.8
20260505095927 13 55 1.6 3.2 0.00 0.00 0.00 63 1007.1
20260505095424 13 123 1.6 3.2 0.00 0.00 0.00 63 1007.0
20260505094920 13 121 0.0 0.0 0.00 0.00 0.00 63 1007.0
20260505094418 13 150 0.0 1.6 0.00 0.00 0.00 65 1006.8
20260505093914 13 47 1.6 3.2 0.00 0.00 0.00 66 1006.4
20260505093411 13 85 3.2 4.8 0.00 0.00 0.00 66 1006.6
20260505092908 13 106 3.2 4.8 0.00 0.00 0.00 66 1006.8
20260505092406 13 131 1.6 3.2 0.00 0.00 0.00 68 1006.6
20260505091903 13 119 1.6 1.6 0.00 0.00 0.00 69 1006.5
20260505091401 13 115 1.6 3.2 0.00 0.00 0.00 71 1006.2
20260505090858 13 114 1.6 3.2 0.00 0.00 0.00 72 1006.4
20260505090356 13 152 1.6 1.6 0.00 0.00 0.00 73 1006.5
20260505085853 13 97 4.8 4.8 0.00 0.00 0.00 74 1006.5
20260505085351 14 124 4.8 9.7 0.00 0.00 0.00 75 1006.3
20260505084849 14 118 0.0 1.6 0.00 0.00 0.00 75 1006.2
20260505084347 14 85 3.2 3.2 0.00 0.00 0.00 75 1006.2
20260505083844 14 145 1.6 1.6 0.00 0.00 0.00 75 1006.1
20260505083342 15 39 3.2 4.8 0.00 0.00 0.00 76 1005.9
20260505082838 15 334 4.8 4.8 0.00 0.00 0.00 77 1005.9
20260505082334 15 123 1.6 3.2 0.00 0.00 0.00 76 1005.5
20260505081831 15 114 0.0 1.6 0.00 0.00 0.00 77 1005.6
20260505081327 16 106 1.6 1.6 0.00 0.00 0.00 79 1005.4
20260505080825 16 35 3.2 4.8 0.00 0.00 0.00 79 1005.5
20260505080320 16 76 1.6 3.2 0.00 0.00 0.00 79 1005.2
20260505075816 16 75 6.4 9.7 0.00 0.00 0.00 78 1005.3
20260505075313 16 16 4.8 9.7 0.00 0.00 0.00 78 1005.3
20260505074810 16 113 0.0 0.0 0.00 0.00 0.00 78 1005.0
20260505074307 16 119 0.0 0.0 0.00 0.00 0.00 80 1004.9
20260505073805 16 98 1.6 1.6 0.00 0.00 0.00 81 1005.3
20260505073303 16 121 0.0 0.0 0.00 0.00 0.00 81 1005.0
20260505072759 16 109 0.0 1.6 0.00 0.00 0.00 83 1005.1
20260505072255 16 187 1.6 3.2 0.00 0.00 0.00 84 1004.8
20260505071751 17 109 0.0 0.0 0.00 0.00 0.00 83 1005.0
20260505071248 18 74 4.8 8.0 0.00 0.00 0.00 79 1005.0
20260505070746 18 85 1.6 3.2 0.00 0.00 0.00 76 1004.9
20260505070242 19 124 0.0 0.0 0.00 0.00 0.00 77 1004.7
20260505065737 19 74 0.0 0.0 0.00 0.00 0.00 78 1004.7
20260505065235 19 124 0.0 0.0 0.00 0.00 0.00 78 1004.6
20260505064731 19 119 0.0 0.0 0.00 0.00 0.00 77 1004.7
20260505064229 19 123 0.0 0.0 0.00 0.00 0.00 75 1004.5
20260505063727 19 109 1.6 1.6 0.00 0.00 0.00 73 1004.6
20260505063223 20 104 1.6 3.2 0.00 0.00 0.00 73 1004.9
20260505062719 20 120 0.0 0.0 0.00 0.00 0.00 79 1004.7
20260505062217 20 121 0.0 0.0 0.00 0.00 0.00 77 1004.8
20260505061714 20 124 0.0 0.0 0.00 0.00 0.00 76 1004.6
20260505061212 20 122 0.0 0.0 0.00 0.00 0.00 76 1004.5
20260505060709 21 124 0.0 0.0 0.00 0.00 0.00 75 1004.3
20260505060206 21 125 0.0 0.0 0.00 0.00 0.00 75 1004.0
20260505055701 21 125 0.0 0.0 0.00 0.00 0.00 75 1003.9
20260505055158 21 126 0.0 0.0 0.00 0.00 0.00 75 1003.6
20260505054655 21 121 0.0 0.0 0.00 0.00 0.00 75 1003.8
20260505054153 21 117 0.0 0.0 0.00 0.00 0.00 76 1003.7
20260505053650 21 112 0.0 0.0 0.00 0.00 0.00 76 1003.7
20260505053147 21 126 0.0 0.0 0.00 0.00 0.00 76 1003.7
20260505052644 21 136 1.6 1.6 0.00 0.00 0.00 76 1003.5
20260505052141 21 130 0.0 0.0 0.00 0.00 0.00 77 1003.8
20260505051637 21 116 0.0 0.0 0.00 0.00 0.00 77 1003.6
20260505051136 21 129 0.0 0.0 0.00 0.00 0.00 77 1003.9
20260505050633 21 104 0.0 0.0 0.00 0.00 0.00 76 1003.9
20260505050132 21 116 1.6 1.6 0.00 0.00 0.00 76 1003.8
20260505041601 21 198 0.0 0.0 0.00 0.00 0.00 77 1002.8
20260505041059 21 119 0.0 0.0 0.00 0.00 0.00 77 1003.1
20260505040556 21 81 0.0 1.6 0.00 0.00 0.00 76 1003.2
20260505040053 21 134 0.0 1.6 0.00 0.00 0.00 76 1002.8
20260505035549 21 124 1.6 3.2 0.00 0.00 0.00 76 1003.0
20260505035046 21 72 1.6 3.2 0.00 0.00 0.00 76 1003.1
20260505034542 21 97 1.6 3.2 0.00 0.00 0.00 74 1003.0
20260505034039 22 68 1.6 3.2 0.00 0.00 0.00 73 1002.9
20260505033536 22 121 1.6 1.6 0.00 0.00 0.00 72 1002.9
20260505033034 22 219 1.6 4.8 0.00 0.00 0.00 71 1002.8
20260505032532 22 119 0.0 0.0 0.00 0.00 0.00 73 1002.8
20260505032028 22 130 1.6 1.6 0.00 0.00 0.00 71 1002.8
20260505031526 22 113 0.0 1.6 0.00 0.00 0.00 70 1003.3
20260505031022 22 83 0.0 1.6 0.00 0.00 0.00 69 1003.3
20260505030519 22 226 1.6 3.2 0.00 0.00 0.00 68 1003.3
20260505030015 22 119 0.0 1.6 0.00 0.00 0.00 67 1003.2
20260505025511 22 132 0.0 0.0 0.00 0.00 0.00 67 1003.0
20260505025010 22 132 1.6 1.6 0.00 0.00 0.00 67 1002.9
20260505024506 23 121 1.6 3.2 0.00 0.00 0.00 66 1003.2
20260505024003 23 104 1.6 1.6 0.00 0.00 0.00 65 1003.3
20260505023500 23 126 0.0 0.0 0.00 0.00 0.00 65 1003.1
20260505022958 23 93 3.2 3.2 0.00 0.00 0.00 64 1003.4
20260505022455 23 92 1.6 1.6 0.00 0.00 0.00 64 1003.0
20260505021952 23 94 3.2 3.2 0.00 0.00 0.00 64 1003.1
20260505021449 23 132 0.0 1.6 0.00 0.00 0.00 64 1003.4
20260505020944 23 84 0.0 1.6 0.00 0.00 0.00 64 1003.3
20260505020440 23 111 1.6 1.6 0.00 0.00 0.00 63 1003.6
20260505015937 23 119 0.0 0.0 0.00 0.00 0.00 63 1003.6
20260505015434 23 123 0.0 0.0 0.00 0.00 0.00 63 1003.7
20260505014931 23 149 0.0 0.0 0.00 0.00 0.00 62 1003.6
20260505014428 23 130 0.0 0.0 0.00 0.00 0.00 62 1003.3
20260505013925 23 124 0.0 0.0 0.00 0.00 0.00 62 1003.3
20260505013422 23 144 0.0 0.0 0.00 0.00 0.00 61 1002.7
20260505012920 23 121 0.0 0.0 0.00 0.00 0.00 60 1002.9
20260505012418 23 107 0.0 0.0 0.00 0.00 0.00 59 1002.9
20260505011914 23 123 0.0 0.0 0.00 0.00 0.00 58 1002.6
20260505011410 23 117 0.0 1.6 0.00 0.00 0.00 58 1002.8
20260505010907 24 116 0.0 0.0 0.00 0.00 0.00 58 1002.4
20260505010403 24 122 0.0 0.0 0.00 0.00 0.00 57 1002.7
20260505005859 24 133 0.0 0.0 0.00 0.00 0.00 57 1002.3
20260505005356 24 124 0.0 0.0 0.00 0.00 0.00 56 1002.7
20260505004854 25 127 0.0 0.0 0.00 0.00 0.00 55 1002.4
20260505004350 25 122 0.0 0.0 0.00 0.00 0.00 55 1002.3
20260505003847 25 129 0.0 1.6 0.00 0.00 0.00 54 1002.4
20260505003344 25 131 1.6 1.6 0.00 0.00 0.00 53 1002.5
20260505002840 25 121 0.0 0.0 0.00 0.00 0.00 53 1002.6
20260505002337 25 122 0.0 0.0 0.00 0.00 0.00 52 1002.5
20260505001836 25 128 0.0 1.6 0.00 0.00 0.00 52 1002.7
20260505001332 26 141 0.0 0.0 0.00 0.00 0.00 51 1002.7
20260505000829 26 115 0.0 0.0 0.00 0.00 0.00 51 1002.7
20260505000327 26 121 0.0 0.0 0.00 0.00 0.00 50 1002.6
20260504235824 26 115 4.8 9.7 0.00 0.00 0.00 49 1002.8
20260504235321 26 121 1.6 3.2 0.00 0.00 0.00 48 1002.8
20260504234817 26 113 0.0 1.6 0.00 0.00 0.00 49 1002.6
20260504234315 26 166 1.6 3.2 0.00 0.00 0.00 48 1002.8
20260504233811 26 125 1.6 3.2 0.00 0.00 0.00 48 1002.7
20260504233307 26 121 1.6 1.6 0.00 0.00 0.00 48 1002.8
20260504232804 26 117 0.0 1.6 0.00 0.00 0.00 48 1002.9
20260504232303 27 112 4.8 9.7 0.00 0.00 0.00 47 1003.0
20260504231758 27 110 4.8 8.0 0.00 0.00 0.00 47 1002.9
20260504231254 27 96 0.0 1.6 0.00 0.00 0.00 47 1002.7
20260504230750 27 112 1.6 1.6 0.00 0.00 0.00 46 1003.0
20260504230249 28 142 1.6 1.6 0.00 0.00 0.00 45 1002.7
20260504225747 28 110 4.8 8.0 0.00 0.00 0.00 45 1002.6
20260504225243 28 262 6.4 12.9 0.00 0.00 0.00 45 1002.8
20260504224740 28 127 3.2 3.2 0.00 0.00 0.00 45 1002.8